Home > Weather > Bregenz > Past weeks

Flag for Austria Past Weather in Bregenz, Vorarlberg, Austria — Yesterday and Last 2 Weeks

Now
75 °F

Mild.


Feels Like: 78 °F
Forecast: 56 / 87 °F
Wind: 2 mph from Northwest

Location: Bregenz

Current Time: Aug 24, 2016 at 3:57:22 PM

Latest Report: Aug 24, 2016 at 3:00 PM


Visibility: N/A

Pressure: 30.13 "Hg

Humidity: 55%

Dew Point: 58 °F

Location of BregenzLocation

Past Weather in Bregenz — Graph

°F

Bregenz Temperature Yesterday

Maximum temperature yesterday: 79 °F (at 6:00 PM)
Minimum temperature yesterday: 53 °F (at 6:00 AM)
Average temperature yesterday: 65 °F

High & Low Weather Summary for the Past Weeks

 TemperatureHumidityPressure
High83 °F (Aug 14, 6:00 PM)97% (Aug 11, 7:00 AM)30.40 "Hg (Aug 11, 7:00 AM)
Low50 °F (Aug 11, 3:00 AM)38% (Aug 13, 5:00 PM)29.79 "Hg (Aug 17, 7:00 PM)
Average64 °F75%30.11 "Hg
* Reported Aug 9 2:00 PM — Aug 24 2:00 PM, Bregenz, Weather by CustomWeather, © 2016

Note: Actual official high and low records may vary slightly from our data, if they occured in-between our weather recording intervals... More about our weather records

Advertising

Bregenz Weather History for the Previous 24 Hours

Scroll right to see more
 ConditionsComfort  
Time TempWeatherWind HumidityBarometerVisibility
2:00 PM
Wed, Aug 24
72 °FMild.2 mph66%30.14 "HgN/A
1:00 PM71 °FMild.2 mph74%30.16 "HgN/A
12:00 PM70 °FMild.2 mph74%30.18 "HgN/A
11:00 AM68 °FPassing clouds.2 mph75%30.19 "Hg22 mi
10:00 AM68 °FMild.2 mph72%30.20 "HgN/A
9:00 AM65 °FMild.No wind81%30.21 "HgN/A
8:00 AM59 °FPassing clouds.1 mph94%30.23 "Hg25 mi
7:00 AM59 °FSunny.No wind95%30.22 "Hg25 mi
6:00 AM59 °FCool.1 mph94%30.21 "HgN/A
5:00 AM60 °FCool.No wind94%30.21 "HgN/A
4:00 AM61 °FCool.1 mph92%30.22 "HgN/A
3:00 AM62 °FMild.3 mph88%30.22 "HgN/A
2:00 AM62 °FCool.1 mph88%30.23 "HgN/A
1:00 AM63 °FMild.1 mph87%30.24 "HgN/A
12:00 AM64 °FMild.No wind85%30.24 "HgN/A
11:00 PM
Tue, Aug 23
65 °FMild.1 mph83%30.24 "HgN/A
10:00 PM67 °FMild.1 mph79%30.24 "HgN/A
9:00 PM68 °FMild.1 mph80%30.24 "HgN/A
8:00 PM72 °FMild.1 mph74%30.22 "HgN/A
7:00 PM79 °FWarm.1 mph57%30.19 "HgN/A
6:00 PM79 °FWarm.1 mph48%30.20 "HgN/A
5:00 PM77 °FMild.2 mph47%30.22 "HgN/A
4:00 PM75 °FMild.3 mph54%30.24 "HgN/A
3:00 PM75 °FMild.2 mph49%30.25 "HgN/A
Weather by CustomWeather, © 2016

See weather overviewHow to use our weather pages